Weather History for Muscatine, IA

Change the Weather History Date:

Wednesday, October 31, 2012

  Actual Average Record
Temperature  
Mean Temperature 40 °F -  
Max Temperature 53 °F 58 °F 87 °F (1950)
Min Temperature 28 °F 41 °F 21 °F (1988)
Degree Days  
Heating Degree Days 24    
Moisture  
Dew Point 16 °F    
Average Humidity 44    
Maximum Humidity 75    
Minimum Humidity 12    
Precipitation  
Precipitation 0.00 in - - ()
Sea Level Pressure  
Sea Level Pressure 29.95 in    
Wind  
Wind Speed 7 mph (NW)    
Max Wind Speed 21 mph    
Max Gust Speed 34 mph    
Visibility 10 miles    
Events      
Averages and records for this station are not official NWS values.
T = Trace of Precipitation, MM = Missing Value Source: NWS Daily Summary

Daily Weather History Graph

Daily Weather History Graph

Search for Another Location

Airport:

Trip Planner

Search our weather history database for the weather conditions in past years. The results will help you decide how hot, cold, wet, or windy it might be!

Date:

Astronomy

Oct. 31, 2012 Rise Set
Actual Time 7:35 AM CDT 6:00 PM CDT
Civil Twilight 7:06 AM CDT 6:28 PM CDT
Nautical Twilight 6:34 AM CDT 7:01 PM CDT
Astronomical Twilight 6:01 AM CDT 7:33 PM CDT
Moon 7:10 PM CDT 9:17 AM CDT
Length of Visible Light 11h 22m
Length of Day
10h 24m
Full, 97% of the Moon is Illuminated
Oct 31
Full
Nov 6
Last Quarter
Nov 13
New
Nov 20
First Quarter
Nov 28
Full

Hourly Weather History & Observations

Time (CDT) Temp. Windchill Dew Point Humidity Pressure Visibility Wind Dir Wind Speed Gust Speed Precip Events Conditions
12:15 AM 35.6 °F 29.9 °F 23.0 °F 60% 29.94 in 10.0 mi WNW 6.9 mph - N/A   Clear
12:35 AM 35.6 °F 31.7 °F 23.0 °F 60% 29.94 in 10.0 mi WNW 4.6 mph - N/A   Clear
12:55 AM 35.6 °F 29.2 °F 24.8 °F 65% 29.95 in 10.0 mi NW 8.1 mph - N/A   Clear
1:15 AM 33.8 °F 29.6 °F 23.0 °F 65% 29.95 in 10.0 mi WNW 4.6 mph - N/A   Clear
1:35 AM 33.8 °F 27.0 °F 23.0 °F 65% 29.95 in 10.0 mi NW 8.1 mph - N/A   Clear
1:55 AM 32.0 °F 26.4 °F 23.0 °F 69% 29.95 in 10.0 mi WNW 5.8 mph - N/A   Clear
2:15 AM 32.0 °F 25.6 °F 23.0 °F 69% 29.95 in 10.0 mi WNW 6.9 mph - N/A   Clear
2:35 AM 32.0 °F 24.2 °F 23.0 °F 69% 29.95 in 10.0 mi NW 9.2 mph - N/A   Clear
2:55 AM 30.2 °F 23.4 °F 23.0 °F 75% 29.95 in 10.0 mi WNW 6.9 mph - N/A   Clear
3:15 AM 30.2 °F 22.6 °F 21.2 °F 69% 29.95 in 10.0 mi NW 8.1 mph - N/A   Clear
3:35 AM 30.2 °F 22.6 °F 21.2 °F 69% 29.95 in 10.0 mi NW 8.1 mph - N/A   Clear
3:55 AM 30.2 °F 23.4 °F 21.2 °F 69% 29.95 in 10.0 mi NW 6.9 mph - N/A   Clear
4:35 AM 30.2 °F 22.6 °F 21.2 °F 69% 29.95 in 10.0 mi NW 8.1 mph - N/A   Clear
4:55 AM 28.4 °F 23.3 °F 21.2 °F 74% 29.95 in 10.0 mi NW 4.6 mph - N/A   Clear
5:15 AM 28.4 °F 22.2 °F 19.4 °F 69% 29.96 in 10.0 mi NW 5.8 mph - N/A   Clear
5:35 AM 28.4 °F 23.3 °F 19.4 °F 69% 29.96 in 10.0 mi NW 4.6 mph - N/A   Clear
5:55 AM 28.4 °F 23.3 °F 19.4 °F 69% 29.96 in 10.0 mi NW 4.6 mph - N/A   Clear
6:15 AM 28.4 °F 22.2 °F 19.4 °F 69% 29.97 in 10.0 mi NW 5.8 mph - N/A   Clear
6:35 AM 28.4 °F 23.3 °F 19.4 °F 69% 29.97 in 10.0 mi NW 4.6 mph - N/A   Clear
6:55 AM 28.4 °F 24.6 °F 19.4 °F 69% 29.97 in 10.0 mi NW 3.5 mph - N/A   Clear
7:15 AM 28.4 °F - 19.4 °F 69% 29.97 in 10.0 mi Calm Calm - N/A   Clear
7:35 AM 28.4 °F 24.6 °F 19.4 °F 69% 29.97 in 10.0 mi WNW 3.5 mph - N/A   Clear
7:55 AM 28.4 °F 23.3 °F 19.4 °F 69% 29.97 in 10.0 mi WNW 4.6 mph - N/A   Clear
8:15 AM 28.4 °F 23.3 °F 19.4 °F 69% 29.97 in 10.0 mi WNW 4.6 mph - N/A   Clear
8:35 AM 30.2 °F 24.3 °F 21.2 °F 69% 29.97 in 10.0 mi NW 5.8 mph - N/A   Clear
8:55 AM 32.0 °F 26.4 °F 21.2 °F 64% 29.98 in 10.0 mi NNW 5.8 mph - N/A   Clear
9:15 AM 33.8 °F 28.6 °F 23.0 °F 65% 29.98 in 10.0 mi NNW 5.8 mph - N/A   Clear
9:35 AM 35.6 °F 29.2 °F 23.0 °F 60% 29.98 in 10.0 mi NNW 8.1 mph - N/A   Clear
9:55 AM 37.4 °F 30.8 °F 21.2 °F 52% 29.97 in 10.0 mi NNW 9.2 mph - N/A   Clear
10:15 AM 39.2 °F 32.5 °F 21.2 °F 49% 29.97 in 10.0 mi NNW 10.4 mph - N/A   Clear
10:35 AM 39.2 °F 32.5 °F 19.4 °F 45% 29.97 in 10.0 mi NNW 10.4 mph - N/A   Clear
10:55 AM 42.8 °F 37.0 °F 17.6 °F 36% 29.97 in 10.0 mi NNW 10.4 mph - N/A   Clear
11:15 AM 44.6 °F 39.7 °F 17.6 °F 34% 29.98 in 10.0 mi NNW 9.2 mph - N/A   Clear
11:35 AM 44.6 °F 38.4 °F 15.8 °F 31% 29.98 in 10.0 mi NNW 12.7 mph 16.1 mph N/A   Clear
11:55 AM 46.4 °F 40.7 °F 15.8 °F 29% 29.97 in 10.0 mi NW 12.7 mph 17.3 mph N/A   Clear
12:15 PM 48.2 °F - 10.4 °F 22% 29.97 in 10.0 mi NNW 11.5 mph 17.3 mph N/A   Clear
12:35 PM 48.2 °F - 12.2 °F 24% 29.96 in 10.0 mi NNW 11.5 mph 16.1 mph N/A   Clear
12:55 PM 50.0 °F - 8.6 °F 19% 29.96 in 10.0 mi NNW 11.5 mph 19.6 mph N/A   Clear
1:15 PM 51.8 °F - 6.8 °F 16% 29.95 in 10.0 mi WNW 16.1 mph 20.7 mph N/A   Clear
1:35 PM 51.8 °F - 8.6 °F 18% 29.95 in 10.0 mi NW 12.7 mph 21.9 mph N/A   Clear
1:55 PM 51.8 °F - 6.8 °F 16% 29.94 in 10.0 mi NW 16.1 mph 21.9 mph N/A   Clear
2:15 PM 51.8 °F - 8.6 °F 18% 29.93 in 10.0 mi WNW 12.7 mph 20.7 mph N/A   Clear
2:35 PM 51.8 °F - 8.6 °F 18% 29.93 in 10.0 mi WNW 15.0 mph - N/A   Clear
2:55 PM 53.6 °F - 6.8 °F 15% 29.92 in 10.0 mi NW 12.7 mph 20.7 mph N/A   Clear
3:15 PM 53.6 °F - 6.8 °F 15% 29.93 in 10.0 mi NW 12.7 mph 19.6 mph N/A   Clear
3:35 PM 53.6 °F - 6.8 °F 15% 29.92 in 10.0 mi NW 15.0 mph 25.3 mph N/A   Clear
3:55 PM 53.6 °F - 3.2 °F 13% 29.93 in 10.0 mi NW 20.7 mph 34.5 mph N/A   Clear
4:15 PM 53.6 °F - 1.4 °F 12% 29.93 in 10.0 mi NW 19.6 mph 29.9 mph N/A   Clear
4:35 PM 51.8 °F - 1.4 °F 13% 29.93 in 10.0 mi NW 17.3 mph 28.8 mph N/A   Clear
4:55 PM 51.8 °F - 1.4 °F 13% 29.93 in 10.0 mi NW 11.5 mph 27.6 mph N/A   Clear
5:15 PM 51.8 °F - 5.0 °F 15% 29.93 in 10.0 mi NW 11.5 mph 17.3 mph N/A   Clear
5:35 PM 50.0 °F - 6.8 °F 17% 29.94 in 10.0 mi NW 11.5 mph 16.1 mph N/A   Clear
5:55 PM 46.4 °F 42.4 °F 10.4 °F 23% 29.94 in 10.0 mi NW 8.1 mph - N/A   Clear
6:15 PM 44.6 °F 41.4 °F 10.4 °F 25% 29.94 in 10.0 mi NW 5.8 mph - N/A   Clear
6:35 PM 42.8 °F 39.3 °F 12.2 °F 29% 29.95 in 10.0 mi NW 5.8 mph - N/A   Clear
6:55 PM 41.0 °F 37.1 °F 15.8 °F 36% 29.95 in 10.0 mi WNW 5.8 mph - N/A   Clear
7:15 PM 39.2 °F 35.9 °F 15.8 °F 39% 29.95 in 10.0 mi WNW 4.6 mph - N/A   Clear
7:35 PM 39.2 °F 35.9 °F 15.8 °F 39% 29.96 in 10.0 mi WNW 4.6 mph - N/A   Clear
7:55 PM 37.4 °F 33.8 °F 15.8 °F 41% 29.96 in 10.0 mi West 4.6 mph - N/A   Clear
8:15 PM 37.4 °F 34.9 °F 15.8 °F 41% 29.96 in 10.0 mi West 3.5 mph - N/A   Clear
8:35 PM 37.4 °F 33.8 °F 14.0 °F 38% 29.95 in 10.0 mi West 4.6 mph - N/A   Clear
8:55 PM 37.4 °F 33.8 °F 15.8 °F 41% 29.96 in 10.0 mi WNW 4.6 mph - N/A   Clear
9:15 PM 39.2 °F 35.9 °F 14.0 °F 36% 29.96 in 10.0 mi West 4.6 mph - N/A   Clear
9:35 PM 39.2 °F 35.9 °F 12.2 °F 33% 29.96 in 10.0 mi West 4.6 mph - N/A   Clear
9:55 PM 39.2 °F - 12.2 °F 33% 29.95 in 10.0 mi Calm Calm - N/A   Clear
10:15 PM 39.2 °F 35.9 °F 14.0 °F 36% 29.95 in 10.0 mi West 4.6 mph - N/A   Clear
10:35 PM 37.4 °F 34.9 °F 15.8 °F 41% 29.95 in 10.0 mi WNW 3.5 mph - N/A   Clear
10:55 PM 39.2 °F 37.0 °F 15.8 °F 39% 29.95 in 10.0 mi West 3.5 mph - N/A   Clear
11:15 PM 39.2 °F - 15.8 °F 39% 29.94 in 10.0 mi Calm Calm - N/A   Clear
11:35 PM 39.2 °F 37.0 °F 15.8 °F 39% 29.95 in 10.0 mi West 3.5 mph - N/A   Clear
11:55 PM 37.4 °F 34.9 °F 17.6 °F 45% 29.96 in 10.0 mi WNW 3.5 mph - N/A   Clear